Weather History for Vicksburg, MS

Change the Weather History Date:

Friday, November 14, 2014

  Actual Average Record
Temperature  
Mean Temperature 35 °F 56 °F  
Max Temperature 44 °F 68 °F 85 °F (1955)
Min Temperature 25 °F 44 °F 20 °F (2013)
Degree Days  
Heating Degree Days 30 9  
Month to date heating degree days 197 109  
Since 1 July heating degree days 280 211  
Cooling Degree Days 0 0  
Month to date cooling degree days 4 12  
Year to date cooling degree days 2186 2221  
Moisture  
Dew Point 17 °F    
Average Humidity 48    
Maximum Humidity 68    
Minimum Humidity 28    
Precipitation  
Precipitation 0.00 in 0.16 in 1.59 in (1970)
Month to date precipitation 0.25 1.98  
Year to date precipitation 50.35 46.11  
Sea Level Pressure  
Sea Level Pressure 30.43 in    
Wind  
Wind Speed 9 mph (NNE)    
Max Wind Speed 17 mph    
Max Gust Speed 22 mph    
Visibility 10 miles    
Events      
T = Trace of Precipitation, MM = Missing Value Source: NWS Daily Summary

Daily Weather History Graph

Daily Weather History Graph

Search for Another Location

Airport:

Trip Planner

Search our weather history database for the weather conditions in past years. The results will help you decide how hot, cold, wet, or windy it might be!

Date:

Astronomy

Nov. 14, 2014 Rise Set
Actual Time 6:32 AM CST 5:04 PM CST
Civil Twilight 6:06 AM CST 5:30 PM CST
Nautical Twilight 5:37 AM CST 5:59 PM CST
Astronomical Twilight 5:07 AM CST 6:28 PM CST
Moon No Moon Rise 12:32 PM CST (11/14)
Length of Visible Light 11h 23m
Length of Day
10h 31m
Waning Gibbous, 49% of the Moon is Illuminated
Nov 14
Waning Gibbous
Nov 22
New
Nov 29
First Quarter
Dec 6
Full
Dec 14
Last Quarter

Hourly Weather History & Observations

Time (CST) Temp. Windchill Dew Point Humidity Pressure Visibility Wind Dir Wind Speed Gust Speed Precip Events Conditions
12:53 AM 28.0 °F 22.8 °F 18.0 °F 66% 30.44 in 10.0 mi NW 4.6 mph - N/A   Clear
1:53 AM 27.0 °F 23.0 °F 18.0 °F 69% 30.43 in 10.0 mi NNW 3.5 mph - N/A   Clear
2:53 AM 30.0 °F 22.4 °F 18.0 °F 61% 30.43 in 10.0 mi North 8.1 mph - N/A   Clear
3:53 AM 30.0 °F 21.1 °F 17.1 °F 59% 30.43 in 10.0 mi NNE 10.4 mph - N/A   Clear
4:53 AM 28.9 °F 20.4 °F 17.1 °F 61% 30.43 in 10.0 mi NNE 9.2 mph - N/A   Clear
5:53 AM 28.0 °F 18.6 °F 18.0 °F 66% 30.45 in 10.0 mi NNE 10.4 mph - N/A   Clear
6:53 AM 27.0 °F 18.0 °F 18.0 °F 69% 30.46 in 10.0 mi NNE 9.2 mph - N/A   Clear
7:53 AM 30.9 °F 21.7 °F 19.0 °F 61% 30.48 in 10.0 mi NNE 11.5 mph - N/A   Clear
8:53 AM 34.0 °F 25.5 °F 17.1 °F 50% 30.50 in 10.0 mi NNE 11.5 mph - N/A   Clear
9:53 AM 37.0 °F 28.9 °F 16.0 °F 42% 30.49 in 10.0 mi NNE 12.7 mph 20.7 mph N/A   Clear
10:53 AM 39.0 °F 31.8 °F 15.1 °F 38% 30.50 in 10.0 mi NNE 11.5 mph 19.6 mph N/A   Clear
11:53 AM 42.1 °F 34.9 °F 16.0 °F 35% 30.46 in 10.0 mi North 13.8 mph - N/A   Clear
12:53 PM 42.1 °F 35.7 °F 14.0 °F 32% 30.42 in 10.0 mi North 11.5 mph 20.7 mph N/A   Clear
1:53 PM 44.1 °F 37.7 °F 14.0 °F 30% 30.40 in 10.0 mi North 12.7 mph 17.3 mph N/A   Clear
2:53 PM 43.0 °F 36.0 °F 14.0 °F 31% 30.38 in 10.0 mi North 13.8 mph - N/A   Clear
3:53 PM 42.1 °F 36.1 °F 15.1 °F 34% 30.38 in 10.0 mi North 10.4 mph - N/A   Clear
4:53 PM 37.9 °F 31.5 °F 16.0 °F 41% 30.37 in 10.0 mi North 9.2 mph - N/A   Clear
5:53 PM 35.1 °F 27.9 °F 17.1 °F 48% 30.38 in 10.0 mi North 9.2 mph - N/A   Clear
6:53 PM 34.0 °F 26.6 °F 18.0 °F 52% 30.39 in 10.0 mi NNE 9.2 mph - N/A   Clear
7:53 PM 33.1 °F 27.7 °F 18.0 °F 54% 30.39 in 10.0 mi North 5.8 mph - N/A   Clear
8:53 PM 34.0 °F 26.6 °F 18.0 °F 52% 30.40 in 10.0 mi NNE 9.2 mph - N/A   Clear
9:53 PM 32.0 °F 25.6 °F 19.0 °F 59% 30.40 in 10.0 mi NNE 6.9 mph - N/A   Clear
10:53 PM 33.1 °F 26.1 °F 19.0 °F 56% 30.40 in 10.0 mi NNE 8.1 mph - N/A   Clear
11:53 PM 30.0 °F - 19.0 °F 64% 30.40 in 10.0 mi Calm Calm - N/A   Clear